Temp
-5 -6 -5 -5 -6 -6 -6 -6 -6 -6 -6 -6 -5 -5 -5 -5 -5 -5 -5 -5 -5 -5 -5 -5 -5 -5 -5 -5 -5 -5 -5 -5 -5 -5 -5 -5 -5 -5 -5 -5 -5 -5
-5 -5 -6 -6 -6 -6 -6 -6 -6 -6 -5 -5 -5 -5 -5 -5 -5 -5 -5 -5 -5 -5 -5 -5 -5 -5 -5 -5 -5 -5 -5 -5 -5 -5 -5 -5 -5 -5 -5 -5 -5 -5
-6 -6 -6 -6 -6 -6 -5 -5 -5 -5 -5 -5 -5 -5 -5 -5 -5 -5 -5 -5 -5 -5 -5 -5 -5 -5 -5 -5 -5 -5 -5 -5 -5 -5 -5 -5 -5 -5 -5 -5 -5 -5
-6 -6 -6 -6 -6 -6 -5 -5 -5 -5 -5 -5 -5 -5 -5 -5 -5 -5 -5 -5 -5 -5 -5 -5 -5 -5 -5 -5 -5 -5 -5 -5 -5 -5 -5 -5 -5 -5 -5 -5 -5 -5
-6 -6 -6 -6 -6 -6 -6 -6 -6 -6 -5 -5 -5 -5 -5 -5 -5 -5 -5 -5 -5 -5 -5 -5 -5 -5 -5 -5 -5 -5 -5 -5 -5 -5 -5 -5 -5 -5 -5 -6 -6 -6
-6 -6 -6 -6 -6 -6 -6 -6 -6 -6 -6 -6 -6 -6 -6 -6 -6 -6 -6 -6 -6 -6 -6 -5 -5 -5 -5 -5 -5 -5 -5 -5 -5 -5 -5 -5 -6 -6 -6 -6 -6 -6
-6 -6 -6 -6 -6 -6 -6 -6 -6 -6 -6 -6 -6 -6 -6 -6 -6 -6 -6 -6 -6 -6 -6 -6 -6 -6 -6 -6 -6 -6 -6 -6 -6 -6 -6 -6 -6 -6 -6 -6 -6 -6
-6 -6 -6 -6 -6 -6 -6 -6 -6 -6 -6 -6 -6 -6 -6 -6 -6 -6 -6 -6 -6 -6 -6 -6 -6 -6 -6 -6 -6 -6 -6 -6 -6 -6 -6 -6 -6 -6 -7 -7 -7 -7
-6 -6 -6 -6 -6 -6 -6 -6 -6 -6 -6 -6 -6 -7 -7 -7 -7 -7 -7 -6 -6 -6 -6 -6 -6 -6 -6 -6 -6 -6 -6 -6 -7 -7 -7 -7 -7 -7 -7 -7 -7 -7
-6 -6 -6 -6 -6 -6 -6 -6 -6 -7 -7 -7 -7 -7 -7 -7 -7 -7 -7 -6 -6 -6 -6 -6 -6 -6 -6 -6 -6 -6 -7 -7 -7 -7 -7 -7 -7 -7 -7 -7 -7 -7
-7 -7 -7 -7 -7 -7 -7 -7 -7 -7 -7 -7 -7 -7 -7 -7 -7 -7 -7 -7 -7 -7 -7 -7 -7 -7 -6 -6 -7 -7 -7 -7 -7 -7 -7 -7 -7 -7 -7 -7 -7 -7
-7 -7 -7 -7 -7 -7 -7 -7 -7 -7 -7 -7 -7 -7 -7 -7 -7 -7 -7 -7 -7 -7 -7 -7 -7 -7 -7 -7 -7 -7 -7 -7 -8 -8 -8 -8 -8 -8 -8 -8 -8 -8
-7 -7 -7 -7 -7 -7 -7 -7 -7 -7 -7 -7 -7 -7 -7 -7 -7 -7 -7 -7 -7 -7 -7 -7 -7 -7 -7 -7 -7 -7 -7 -8 -8 -8 -8 -8 -8 -8 -8 -8 -8 -8
-7 -7 -7 -7 -7 -7 -7 -7 -7 -7 -7 -8 -8 -8 -8 -7 -7 -7 -7 -7 -7 -7 -7 -7 -7 -8 -8 -8 -8 -8 -8 -8 -8 -8 -8 -8 -8 -8 -8 -8 -8 -8
-7 -7 -7 -7 -7 -7 -7 -7 -7 -7 -8 -8 -8 -8 -7 -7 -7 -7 -7 -7 -7 -8 -8 -8 -8 -8 -8 -8 -8 -8 -8 -8 -8 -8 -8 -8 -9 -9 -9 -9 -9 -9
-7 -7 -7 -7 -7 -7 -7 -7 -7 -7 -8 -8 -8 -8 -8 -8 -8 -8 -8 -8 -8 -8 -8 -8 -8 -8 -8 -8 -8 -8 -8 -8 -8 -8 -9 -9 -9 -9 -9 -9 -9 -9
-7 -7 -7 -7 -7 -7 -7 -7 -7 -7 -7 -8 -8 -8 -8 -8 -8 -8 -8 -8 -8 -8 -8 -8 -8 -8 -8 -8 -8 -8 -8 -9 -9 -9 -9 -9 -9 -9 -9 -9 -9 -9
-7 -7 -7 -7 -7 -7 -7 -7 -7 -7 -7 -7 -8 -7 -8 -8 -8 -8 -8 -8 -8 -8 -8 -8 -8 -8 -8 -9 -9 -9 -9 -9 -9 -9 -9 -9 -9 -9 -9 -9 -9 -9
-8 -7 -7 -7 -7 -7 -7 -7 -7 -7 -7 -8 -8 -8 -8 -8 -8 -8 -8 -8 -8 -8 -8 -9 -9 -9 -9 -9 -9 -9 -9 -9 -9 -9 -9 -9 -9 -9 -9 -9 -9 -9
-8 -7 -7 -7 -7 -7 -8 -8 -7 -7 -7 -7 -8 -8 -8 -8 -8 -8 -8 -8 -8 -8 -9 -9 -9 -9 -9 -9 -9 -9 -9 -9 -9 -9 -9 -9 -9 -9 -9 -9 -9 -9
-7 -7 -7 -7 -7 -7 -7 -7 -7 -7 -7 -7 -7 -7 -8 -8 -8 -8 -8 -8 -9 -9 -9 -9 -9 -9 -9 -9 -9 -9 -9 -9 -9 -9 -9 -9 -9 -9 -9 -9 -9 -9
-7 -7 -7 -7 -7 -7 -7 -7 -7 -7 -7 -7 -7 -8 -8 -8 -8 -8 -8 -9 -9 -9 -9 -9 -9 -9 -9 -9 -9 -9 -9 -9 -9 -9 -9 -9 -9 -9 -9 -9 -9 -9
-7 -7 -7 -7 -7 -7 -7 -7 -7 -7 -7 -7 -7 -8 -8 -8 -8 -9 -9 -9 -9 -9 -9 -9 -9 -9 -9 -9 -9 -9 -9 -9 -9 -9 -9 -9 -10 -10 -10 -10 -10 -10
-7 -7 -7 -7 -7 -7 -7 -7 -7 -7 -7 -7 -8 -8 -8 -8 -9 -9 -9 -9 -9 -9 -9 -9 -9 -9 -9 -9 -9 -9 -9 -9 -9 -9 -10 -10 -10 -10 -10 -11 -11 -11
-7 -7 -7 -7 -7 -7 -7 -7 -7 -7 -7 -8 -8 -8 -8 -8 -9 -9 -9 -9 -9 -9 -9 -9 -9 -9 -9 -9 -9 -9 -9 -9 -9 -10 -10 -10 -11 -11 -11 -12 -12 -11
-7 -7 -7 -7 -7 -7 -7 -7 -7 -7 -8 -8 -8 -8 -8 -9 -9 -9 -9 -9 -9 -9 -9 -9 -9 -9 -9 -9 -9 -9 -9 -9 -10 -10 -11 -11 -11 -12 -12 -12 -12 -12
Height
5893 5893 5893 5893 5893 5893 5894 5894 5895 5896 5896 5897 5897 5897 5897 5897 5898 5899 5899 5899 5899 5899 5899 5899 5898 5898 5897 5896 5896 5896 5895 5895 5894 5894 5893 5892 5891 5890 5889 5889 5888 5887
5894 5894 5894 5894 5894 5894 5894 5895 5895 5896 5896 5896 5896 5896 5897 5897 5898 5898 5899 5898 5898 5898 5897 5897 5897 5897 5896 5895 5895 5894 5894 5893 5893 5892 5891 5890 5889 5888 5887 5886 5885 5884
5895 5896 5896 5896 5895 5895 5895 5895 5896 5896 5896 5896 5896 5896 5897 5897 5898 5898 5898 5897 5897 5897 5896 5896 5896 5895 5895 5894 5893 5893 5892 5892 5891 5890 5889 5888 5887 5886 5885 5884 5882 5882
5897 5897 5897 5896 5896 5895 5895 5895 5895 5895 5896 5896 5896 5896 5896 5897 5897 5897 5896 5896 5896 5895 5895 5895 5894 5894 5893 5892 5892 5891 5890 5889 5889 5887 5886 5885 5884 5883 5882 5880 5879 5878
5898 5897 5897 5896 5896 5895 5895 5895 5895 5895 5895 5895 5896 5896 5896 5896 5895 5895 5894 5894 5894 5893 5893 5893 5892 5891 5891 5890 5889 5888 5887 5886 5885 5884 5883 5882 5881 5880 5879 5877 5876 5875
5897 5897 5896 5896 5895 5895 5895 5895 5895 5895 5895 5895 5895 5895 5894 5894 5894 5893 5892 5892 5891 5891 5890 5890 5889 5889 5888 5887 5886 5884 5883 5882 5881 5880 5879 5878 5877 5876 5875 5873 5872 5871
5896 5896 5896 5896 5895 5895 5895 5895 5894 5894 5894 5894 5893 5893 5892 5891 5891 5890 5890 5889 5889 5888 5887 5887 5886 5885 5884 5883 5882 5881 5880 5878 5877 5876 5875 5874 5872 5871 5870 5869 5868 5866
5895 5895 5895 5895 5894 5894 5894 5894 5894 5893 5893 5892 5891 5890 5890 5889 5888 5888 5887 5887 5886 5885 5884 5883 5882 5881 5880 5879 5878 5877 5875 5874 5873 5871 5870 5868 5867 5866 5865 5863 5862 5861
5895 5895 5894 5894 5894 5894 5894 5893 5893 5892 5891 5890 5890 5889 5888 5887 5886 5886 5885 5884 5883 5882 5881 5880 5879 5877 5876 5875 5873 5872 5870 5869 5867 5866 5864 5863 5862 5861 5859 5858 5857 5856
5894 5894 5894 5893 5893 5893 5892 5892 5891 5890 5889 5889 5887 5886 5885 5884 5883 5883 5882 5881 5880 5879 5878 5877 5875 5874 5872 5870 5869 5867 5866 5864 5863 5861 5860 5859 5857 5856 5855 5854 5852 5851
5894 5893 5893 5893 5892 5892 5891 5890 5889 5888 5887 5886 5885 5883 5882 5881 5881 5880 5879 5878 5877 5876 5875 5874 5872 5870 5868 5866 5865 5863 5862 5860 5859 5857 5856 5854 5853 5852 5850 5849 5848 5847
5893 5892 5892 5892 5891 5891 5890 5889 5887 5886 5885 5883 5882 5880 5880 5879 5879 5878 5877 5876 5874 5873 5872 5870 5869 5867 5864 5862 5861 5860 5858 5857 5855 5853 5852 5850 5849 5847 5846 5844 5843 5842
5892 5891 5891 5891 5890 5889 5888 5887 5885 5883 5882 5880 5879 5878 5878 5878 5877 5876 5874 5873 5871 5870 5868 5867 5865 5863 5860 5859 5858 5856 5854 5853 5851 5849 5848 5846 5844 5843 5841 5840 5838 5836
5891 5890 5890 5889 5888 5887 5886 5884 5882 5881 5879 5879 5878 5878 5877 5876 5874 5873 5871 5870 5868 5866 5865 5863 5862 5860 5857 5855 5854 5852 5850 5849 5847 5845 5844 5842 5840 5838 5837 5835 5833 5832
5890 5890 5889 5888 5887 5886 5884 5883 5881 5880 5878 5878 5878 5877 5875 5873 5872 5871 5869 5867 5865 5863 5862 5860 5858 5856 5854 5852 5851 5849 5847 5845 5843 5842 5840 5838 5836 5835 5833 5831 5829 5828
5889 5889 5888 5887 5886 5885 5884 5883 5881 5880 5877 5876 5876 5874 5872 5871 5870 5868 5866 5864 5862 5861 5858 5857 5855 5852 5851 5849 5847 5845 5844 5842 5840 5838 5836 5835 5833 5831 5829 5827 5825 5824
5889 5888 5887 5886 5885 5884 5883 5882 5880 5878 5876 5875 5874 5872 5870 5868 5867 5865 5864 5861 5859 5858 5855 5853 5851 5849 5848 5846 5844 5842 5840 5838 5837 5835 5833 5831 5829 5827 5825 5823 5821 5819
5887 5887 5886 5885 5883 5882 5881 5880 5878 5876 5874 5873 5871 5869 5868 5866 5864 5863 5861 5858 5856 5855 5853 5850 5848 5846 5845 5843 5841 5839 5837 5835 5833 5831 5829 5827 5825 5823 5821 5819 5817 5815
5886 5885 5884 5883 5881 5880 5879 5878 5876 5874 5872 5870 5868 5867 5865 5864 5862 5860 5858 5856 5854 5852 5850 5848 5846 5844 5842 5840 5838 5836 5834 5832 5830 5828 5826 5823 5821 5819 5817 5814 5812 5810
5885 5884 5883 5882 5880 5878 5877 5876 5874 5872 5870 5868 5866 5865 5863 5861 5859 5857 5855 5853 5851 5850 5848 5846 5843 5841 5839 5837 5835 5833 5831 5829 5827 5824 5822 5820 5817 5815 5812 5810 5807 5804
5883 5883 5882 5881 5879 5877 5875 5873 5872 5870 5868 5866 5865 5863 5861 5859 5857 5855 5853 5851 5849 5847 5845 5843 5841 5839 5837 5835 5833 5831 5828 5826 5823 5821 5818 5816 5813 5811 5808 5805 5802 5799
5882 5882 5881 5879 5878 5876 5874 5872 5870 5869 5867 5865 5863 5861 5859 5857 5855 5853 5851 5849 5847 5845 5843 5841 5838 5836 5834 5832 5830 5828 5825 5822 5820 5817 5815 5812 5809 5806 5803 5800 5796 5793
5881 5880 5879 5878 5876 5875 5873 5871 5869 5867 5865 5863 5861 5859 5857 5855 5853 5851 5849 5847 5845 5843 5841 5838 5836 5834 5832 5829 5827 5825 5822 5819 5816 5813 5810 5807 5804 5801 5797 5794 5790 5787
5880 5878 5877 5876 5874 5873 5871 5869 5867 5865 5863 5861 5859 5857 5856 5854 5851 5849 5847 5845 5842 5840 5838 5836 5833 5831 5829 5826 5824 5821 5819 5816 5813 5809 5806 5802 5799 5795 5792 5789 5785 5782
5879 5877 5875 5874 5873 5870 5869 5867 5865 5863 5861 5859 5857 5855 5853 5851 5849 5847 5844 5842 5840 5837 5835 5833 5831 5828 5825 5823 5821 5818 5815 5812 5808 5804 5801 5797 5794 5791 5787 5784 5781 5778
5878 5876 5874 5873 5871 5869 5867 5865 5863 5861 5859 5857 5855 5853 5851 5849 5846 5844 5842 5839 5837 5835 5832 5830 5828 5825 5822 5820 5817 5814 5811 5807 5804 5800 5797 5793 5790 5787 5784 5781 5777 5774
Wind_Speed
5 4 4 5 5 6 5 4 4 3 1 1 1 1 3 4 4 5 7 8 9 10 11 12 14 15 16 17 18 19 20 21 21 22 23 23 24 25 25 25 25 26
5 5 4 4 4 4 3 3 2 1 1 2 2 3 4 5 7 8 9 10 11 13 14 15 17 17 18 20 21 22 23 23 24 25 25 26 27 28 28 28 29 29
5 4 3 2 2 2 2 3 3 4 5 6 6 7 8 8 9 11 11 13 14 15 17 18 19 20 21 22 23 24 25 26 26 27 28 29 30 31 31 31 32 32
4 4 3 3 4 5 6 6 7 8 9 9 10 11 12 12 13 14 15 15 16 18 19 20 21 22 23 24 25 26 27 28 28 30 31 31 32 33 33 34 34 35
6 6 7 7 8 8 9 10 10 11 12 12 13 14 15 16 17 17 18 19 20 21 22 23 24 25 26 27 28 29 30 31 31 32 33 33 34 34 34 35 35 35
8 9 9 10 11 11 12 12 13 14 15 15 16 17 17 18 19 20 21 22 23 24 25 26 26 27 28 29 30 31 32 33 33 34 34 34 35 35 35 35 34 34
11 11 12 12 13 13 14 15 16 17 17 18 19 20 20 21 22 22 23 23 25 26 26 27 28 28 29 30 30 31 32 33 33 34 34 34 34 34 35 34 34 34
13 13 14 14 14 15 15 16 17 17 18 19 20 21 21 22 23 24 24 25 25 26 26 27 28 29 30 30 31 31 32 32 33 33 34 34 34 34 35 35 35 35
13 13 13 14 14 14 15 15 16 17 18 19 20 21 22 23 23 24 24 25 25 26 26 27 28 29 29 30 30 31 32 32 32 33 33 33 34 34 34 34 34 34
12 12 13 13 13 14 15 15 16 17 18 19 20 21 21 22 22 23 24 24 25 25 25 25 25 25 26 26 26 26 27 28 29 29 30 30 31 31 31 31 31 32
12 13 13 13 14 14 15 16 16 17 18 18 19 19 19 20 20 21 21 21 21 21 22 22 22 22 24 23 23 23 24 24 25 26 27 28 28 28 29 29 30 31
13 13 14 14 14 15 15 16 16 16 17 17 17 17 17 18 19 19 19 19 19 20 21 22 22 23 25 25 24 24 24 25 26 27 28 28 29 29 29 30 31 31
14 14 14 14 15 15 15 16 16 16 16 16 16 16 16 17 18 19 19 20 21 22 23 23 23 24 26 27 26 27 27 27 28 29 29 30 31 31 31 31 32 32
15 15 15 15 15 15 15 16 16 16 15 15 15 16 16 17 18 19 21 22 24 25 25 25 25 26 28 28 28 29 29 30 30 31 31 32 32 32 33 33 33 33
15 14 14 14 14 14 14 14 14 15 15 15 15 17 18 19 19 20 22 24 25 25 26 26 27 28 29 30 30 31 31 31 32 32 32 32 32 32 32 32 31 32
14 14 13 13 13 13 13 13 14 15 16 17 18 20 21 21 21 21 23 24 25 26 27 28 28 29 29 30 30 30 31 31 31 31 31 31 31 30 30 30 30 31
14 13 12 12 13 13 13 14 15 17 18 19 21 22 22 22 22 22 23 24 24 25 26 27 27 28 28 27 28 28 28 28 28 29 29 29 30 30 31 31 32 32
13 12 12 13 14 14 14 16 17 18 20 21 22 22 22 23 23 23 24 24 24 24 24 24 25 25 25 24 25 25 26 27 28 29 29 30 30 31 32 32 33 33
13 12 12 14 16 16 16 17 18 19 20 21 22 23 24 24 25 25 25 24 24 24 23 22 23 24 24 25 26 27 28 29 29 30 31 31 32 33 34 35 35 36
13 13 14 15 16 17 17 18 19 19 20 21 23 24 25 25 26 26 25 24 24 23 22 22 23 25 26 27 28 29 29 30 30 31 32 33 34 35 37 38 38 39
13 14 15 15 16 18 19 19 19 19 21 23 25 25 26 26 25 25 24 23 23 22 22 23 25 26 27 28 28 29 30 30 31 33 34 35 36 38 39 39 40 40
13 14 15 15 16 18 18 19 20 20 22 25 26 26 26 25 24 23 23 22 22 23 23 24 26 27 27 28 28 29 31 32 33 35 36 37 38 39 39 39 39 39
14 15 16 17 17 17 18 19 21 22 24 25 26 26 25 25 23 23 22 22 23 23 24 25 26 27 28 29 29 31 32 34 35 37 37 38 39 39 39 38 38 37
15 16 17 18 18 18 18 19 22 24 25 26 26 25 24 23 23 22 23 23 24 25 26 26 27 28 29 30 31 32 34 35 37 38 38 38 38 38 37 36 35 34
17 17 17 18 19 19 20 21 23 24 25 25 25 24 23 23 23 23 23 24 25 26 26 27 28 29 30 32 33 34 36 37 38 39 38 37 37 36 35 34 34 33
17 18 19 19 20 20 21 23 23 24 24 24 24 24 24 24 23 24 25 25 26 27 28 29 30 31 32 34 35 36 38 38 39 38 36 35 35 34 33 33 33 32
Wind_Direction
40 38 31 39 58 73 75 74 77 83 92 89 322 265 252 262 267 266 266 266 267 270 274 277 278 280 282 283 284 284 284 284 285 286 288 289 289 289 289 290 290 290
38 45 52 57 69 79 75 66 63 357 323 320 310 299 291 284 275 271 271 274 276 278 279 280 280 280 280 281 281 282 282 283 285 286 287 288 288 289 289 290 290 290
37 36 42 38 32 21 2 352 339 327 325 323 316 309 301 292 285 282 280 279 278 278 278 277 277 278 278 278 279 280 281 282 283 283 284 285 285 286 287 288 288 287
13 1 355 345 339 338 334 331 327 323 321 318 313 308 304 299 295 292 288 286 283 281 280 279 278 278 279 279 280 281 281 281 282 282 282 283 284 284 285 286 286 287
350 344 341 340 337 335 332 328 324 320 317 313 309 306 304 302 299 297 295 293 291 289 287 286 285 285 285 284 285 285 285 285 285 285 285 285 285 285 286 287 288 288
341 340 338 338 335 332 330 326 323 319 316 313 309 307 304 302 300 299 299 298 295 293 291 291 290 289 288 288 288 288 288 288 287 287 287 287 287 287 287 287 288 288
333 334 332 331 328 326 325 322 319 316 314 311 309 307 305 303 302 300 298 296 293 292 292 292 292 291 291 290 289 289 288 288 288 288 288 288 288 288 288 288 288 287
329 328 326 325 323 322 321 318 316 313 311 309 307 305 304 301 300 298 295 293 292 293 294 294 294 294 293 292 291 290 290 290 290 290 290 290 290 289 289 289 288 286
328 326 324 323 321 320 317 315 313 310 308 307 304 302 299 296 295 294 293 294 295 296 297 297 296 295 294 295 295 294 294 293 293 292 292 292 291 290 289 288 288 287
326 323 322 320 318 316 315 314 313 310 307 305 300 298 296 295 296 297 297 299 300 300 300 298 298 298 298 299 299 298 296 295 294 292 290 289 288 287 287 287 287 286
321 317 316 316 315 317 317 316 313 310 307 303 300 299 300 301 303 304 305 306 306 306 303 301 301 301 300 300 301 299 298 296 294 292 290 289 287 287 287 287 286 285
315 314 315 316 319 319 318 315 312 310 308 307 306 306 309 312 313 312 312 313 312 310 307 304 305 305 302 303 303 302 301 300 299 297 296 295 294 293 292 291 290 289
314 315 316 320 321 318 316 314 312 311 312 312 312 314 319 322 320 316 314 314 312 311 308 307 308 307 304 305 306 305 304 303 301 300 298 297 297 296 295 294 293 293
314 317 319 322 321 318 318 316 313 314 315 315 318 321 324 323 319 315 313 312 312 311 309 309 309 306 304 305 305 304 304 303 301 300 299 298 297 296 296 295 295 295
314 317 320 323 323 322 321 317 315 317 317 318 322 322 319 317 315 314 313 312 312 310 308 307 306 304 303 304 303 302 301 301 300 300 300 300 299 299 300 299 298 297
314 318 322 325 325 322 319 318 320 320 319 320 321 318 315 315 316 315 312 311 309 307 306 305 304 303 303 303 302 301 301 301 302 303 303 305 305 305 305 303 301 300
315 319 323 324 322 321 322 325 325 322 320 319 317 315 315 317 317 315 313 310 308 306 307 306 306 306 306 306 305 306 306 307 308 308 308 308 307 306 305 304 303 302
316 319 322 324 322 323 328 329 326 322 320 318 315 317 321 321 319 317 316 314 314 314 314 313 311 312 312 313 313 314 314 313 312 311 310 309 308 307 307 306 306 305
313 315 320 323 323 325 328 326 323 321 319 318 318 323 327 325 321 320 320 320 321 322 322 320 317 318 320 320 319 318 316 314 313 312 312 312 312 311 311 309 308 306
313 314 317 320 321 324 326 324 323 323 322 322 324 326 327 325 323 322 323 324 325 325 325 323 322 322 322 321 319 317 315 315 315 315 315 315 314 313 311 309 308 306
318 317 317 320 323 326 326 325 326 326 325 325 326 327 327 325 324 324 325 325 325 325 325 324 323 322 321 320 318 317 317 318 318 317 317 315 314 312 311 309 307 305
325 322 322 326 328 326 325 326 327 327 325 325 327 327 326 325 324 324 324 324 324 324 325 325 323 322 321 320 320 320 320 320 319 318 317 315 314 313 312 311 309 308
332 329 327 331 331 328 327 327 328 328 327 327 327 327 325 324 324 323 323 324 326 326 327 325 323 323 323 322 323 322 321 320 319 318 317 316 316 316 316 315 313 311
338 334 331 332 333 332 331 329 328 328 328 327 327 325 324 324 323 324 325 327 328 327 327 326 325 324 324 324 324 322 321 321 320 319 319 319 320 320 319 318 316 314
340 338 335 335 334 333 331 329 328 328 327 327 326 324 325 325 325 326 327 327 328 328 327 327 326 326 326 325 324 323 322 322 322 322 322 322 323 323 321 320 318 317
341 339 337 336 334 333 331 329 329 329 327 327 327 326 326 326 326 328 328 328 329 328 327 328 328 327 325 324 324 324 324 324 324 324 324 325 324 324 323 322 320 318